Regional Weather Roundup
Issued by NWS Albany, NY

Home | Current Version | Previous Version | Graphics & Text | Print | Product List | Glossary On
Versions: 1 2 3 4 5 6 7 8 9 10 11 12 13 14 15 16 17 18 19 20 21 22 23 24 25 26 27 28 29 30 31 32 33 34 35 36 37 38 39 40 41 42 43 44 45 46 47 48 49 50
000
ASUS41 KALY 292210
RWRALY

NEW YORK STATE HOURLY WEATHER ROUNDUP
NATIONAL WEATHER SERVICE ALBANY NY
600 PM EDT SUN MAR 29 2015

NOTE: "FAIR" INDICATES FEW OR NO CLOUDS BELOW 12,000 FEET WITH NO
SIGNIFICANT WEATHER AND/OR NO OBSTRUCTIONS TO VISIBILITY.

NYZ032-033-038>043-046>054-057>066-NYZ062>081-292300-
EAST


CITY           SKY/WX    TMP DP  RH WIND       PRES   REMARKS
ALBANY         MOSUNNY   41   5  22 W7        30.12F
GLENS FALLS    SUNNY     39  12  33 SE15      30.08F WCI  31
POUGHKEEPSIE   SUNNY     45   1  16 S7        30.12F
NEWBURGH       SUNNY     43   7  22 W7        30.13R
MONTGOMERY     SUNNY     44   3  18 W7        30.12S
WHITE PLAINS   SUNNY     43   6  21 NW12      30.14S
ISLIP          MOSUNNY   43   6  21 W8        30.16S
NEW YORK CITY  MOSUNNY   46   4  17 W10       30.17R
CENTRAL PARK   SUNNY     46   3  17 NW5       30.18S
$$

NYZ005>009-017-018-044>046-055-056-292300-
CENTRAL


CITY           SKY/WX    TMP DP  RH WIND       PRES   REMARKS
FULTON         SUNNY     37  10  32 S12       30.07F WCI  29
SYRACUSE       MOSUNNY   40   6  24 SW7       30.08F
ROME           SUNNY     37   8  30 VRB6      30.12F WCI  32
ELMIRA         SUNNY     45   6  20 SW9       30.04F
BINGHAMTON     SUNNY     37   7  28 SW8       30.06F WCI  31
MONTICELLO     SUNNY     37   7  28 W7        30.12S WCI  32
$$

NYZ026>034-041>043-292300-
NORTH


CITY           SKY/WX    TMP DP  RH WIND       PRES   REMARKS
WATERTOWN      SUNNY     38  11  32 SW8       30.06F WCI  32
FORT DRUM      NOT AVBL
MASSENA        SUNNY     36  14  40 SW16G23   30.05F WCI  26
SARANAC LAKE   SUNNY     34   5  29 SW12      29.97F WCI  25
PLATTSBURGH    SUNNY     38  13  35 S14       30.03F WCI  30
$$

NYZ001>004-010>016-019>021-292300-
WEST


CITY           SKY/WX    TMP DP  RH WIND       PRES   REMARKS
NIAGARA FALLS  PTSUNNY   38  18  44 S10       29.98F WCI  31
BUFFALO        PTSUNNY   39  19  44 S8        29.99F WCI  33
DUNKIRK        PTSUNNY   43  13  29 S12G25    29.99F
JAMESTOWN      PTSUNNY   37  10  32 S17       29.98F WCI  28
WELLSVILLE     SUNNY     38   7  27 S12G21    29.99F WCI  30
ROCHESTER      MOSUNNY   43  11  27 SW13      30.01F
PENN YAN       SUNNY     44   9  23 S9        30.03F
$$

             KEY
       WCI = WIND CHILL INDEX
       VSB = VISIBILITY
       HX  = HEAT INDEX
$$



USA.gov is the U.S. government's official web portal to all federal, state and local government web resources and services.